| time (UTC) | temp C | wind direction | speed KPH | gust KPH | rain 1hr cm | rain 24hr cm | rain mn cm | humidity % | barometer mb |
| 20260906230939 | 37 | 235 | 0.0 | 0.0 | 0.00 | 0.00 | 0.00 | 44 | 1009.5 |
| 20260906230433 | 37 | 45 | 3.2 | 4.8 | 0.00 | 0.00 | 0.00 | 43 | 1009.3 |
| 20260906225932 | 37 | 74 | 0.0 | 1.6 | 0.00 | 0.00 | 0.00 | 43 | 1009.4 |
| 20260906225427 | 37 | 108 | 0.0 | 1.6 | 0.00 | 0.00 | 0.00 | 42 | 1009.6 |
| 20260906224923 | 37 | 203 | 0.0 | 0.0 | 0.00 | 0.00 | 0.00 | 41 | 1009.4 |
| 20260906224419 | 38 | 283 | 1.6 | 3.2 | 0.00 | 0.00 | 0.00 | 42 | 1009.5 |
| 20260906223915 | 38 | 235 | 0.0 | 1.6 | 0.00 | 0.00 | 0.00 | 42 | 1009.3 |
| 20260906223411 | 38 | 254 | 0.0 | 1.6 | 0.00 | 0.00 | 0.00 | 40 | 1009.5 |
| 20260906222909 | 37 | 80 | 3.2 | 3.2 | 0.00 | 0.00 | 0.00 | 43 | 1009.6 |
| 20260906222408 | 37 | 42 | 3.2 | 4.8 | 0.00 | 0.00 | 0.00 | 42 | 1009.7 |
| 20260906221906 | 37 | 190 | 0.0 | 0.0 | 0.00 | 0.00 | 0.00 | 43 | 1009.5 |
| 20260906221405 | 37 | 26 | 4.8 | 4.8 | 0.00 | 0.00 | 0.00 | 44 | 1009.8 |
| 20260906220901 | 37 | 193 | 0.0 | 1.6 | 0.00 | 0.00 | 0.00 | 43 | 1009.7 |
| 20260906220356 | 37 | 128 | 0.0 | 1.6 | 0.00 | 0.00 | 0.00 | 43 | 1009.7 |
| 20260906215855 | 37 | 116 | 3.2 | 3.2 | 0.00 | 0.00 | 0.00 | 43 | 1009.5 |
| 20260906215350 | 37 | 278 | 0.0 | 0.0 | 0.00 | 0.00 | 0.00 | 44 | 1009.4 |
| 20260906214848 | 38 | 209 | 1.6 | 1.6 | 0.00 | 0.00 | 0.00 | 42 | 1009.6 |
| 20260906214348 | 38 | 241 | 1.6 | 3.2 | 0.00 | 0.00 | 0.00 | 43 | 1009.6 |
| 20260906213847 | 37 | 192 | 1.6 | 3.2 | 0.00 | 0.00 | 0.00 | 43 | 1009.6 |
| 20260906213342 | 37 | 240 | 0.0 | 1.6 | 0.00 | 0.00 | 0.00 | 43 | 1009.8 |
| 20260906212839 | 38 | 121 | 1.6 | 1.6 | 0.00 | 0.00 | 0.00 | 43 | 1009.9 |
| 20260906212335 | 37 | 194 | 0.0 | 1.6 | 0.00 | 0.00 | 0.00 | 41 | 1009.9 |
| 20260906211834 | 37 | 185 | 0.0 | 1.6 | 0.00 | 0.00 | 0.00 | 42 | 1009.9 |
| 20260906211329 | 37 | 222 | 0.0 | 1.6 | 0.00 | 0.00 | 0.00 | 42 | 1009.9 |
| 20260906210825 | 37 | 136 | 3.2 | 4.8 | 0.00 | 0.00 | 0.00 | 43 | 1009.9 |
| 20260906210325 | 37 | 169 | 3.2 | 3.2 | 0.00 | 0.00 | 0.00 | 42 | 1010.2 |
| 20260906205820 | 37 | 15 | 6.4 | 11.3 | 0.00 | 0.00 | 0.00 | 42 | 1010.5 |
| 20260906205316 | 37 | 145 | 0.0 | 1.6 | 0.00 | 0.00 | 0.00 | 42 | 1010.5 |
| 20260906204812 | 37 | 354 | 0.0 | 0.0 | 0.00 | 0.00 | 0.00 | 44 | 1010.4 |
| 20260906204311 | 36 | 175 | 3.2 | 8.0 | 0.00 | 0.00 | 0.00 | 45 | 1010.3 |
| 20260906203810 | 37 | 164 | 4.8 | 4.8 | 0.00 | 0.00 | 0.00 | 45 | 1010.6 |
| 20260906203306 | 37 | 186 | 1.6 | 3.2 | 0.00 | 0.00 | 0.00 | 45 | 1010.6 |
| 20260906202803 | 37 | 170 | 1.6 | 4.8 | 0.00 | 0.00 | 0.00 | 45 | 1010.7 |
| 20260906202306 | 37 | 38 | 1.6 | 8.0 | 0.00 | 0.00 | 0.00 | 45 | 1010.8 |
| 20260906201756 | 37 | 345 | 1.6 | 1.6 | 0.00 | 0.00 | 0.00 | 45 | 1010.6 |
| 20260906201256 | 37 | 291 | 0.0 | 0.0 | 0.00 | 0.00 | 0.00 | 45 | 1010.7 |
| 20260906200752 | 37 | 203 | 0.0 | 0.0 | 0.00 | 0.00 | 0.00 | 46 | 1011.0 |
| 20260906200248 | 36 | 288 | 0.0 | 0.0 | 0.00 | 0.00 | 0.00 | 47 | 1010.8 |
| 20260906195743 | 37 | 143 | 1.6 | 1.6 | 0.00 | 0.00 | 0.00 | 45 | 1011.2 |
| 20260906195239 | 36 | 1 | 0.0 | 0.0 | 0.00 | 0.00 | 0.00 | 47 | 1011.0 |
| 20260906194735 | 36 | 301 | 0.0 | 0.0 | 0.00 | 0.00 | 0.00 | 47 | 1011.1 |
| 20260906194231 | 36 | 126 | 3.2 | 3.2 | 0.00 | 0.00 | 0.00 | 47 | 1011.1 |
| 20260906193725 | 36 | 197 | 1.6 | 3.2 | 0.00 | 0.00 | 0.00 | 48 | 1011.2 |
| 20260906193220 | 36 | 27 | 0.0 | 0.0 | 0.00 | 0.00 | 0.00 | 47 | 1011.0 |
| 20260906192716 | 36 | 50 | 3.2 | 9.7 | 0.00 | 0.00 | 0.00 | 46 | 1011.3 |
| 20260906192216 | 36 | 326 | 0.0 | 0.0 | 0.00 | 0.00 | 0.00 | 49 | 1011.1 |
| 20260906191710 | 36 | 76 | 0.0 | 1.6 | 0.00 | 0.00 | 0.00 | 48 | 1011.3 |
| 20260906191210 | 36 | 49 | 0.0 | 1.6 | 0.00 | 0.00 | 0.00 | 48 | 1011.5 |
| 20260906190705 | 36 | 35 | 3.2 | 3.2 | 0.00 | 0.00 | 0.00 | 47 | 1011.5 |
| 20260906190159 | 36 | 119 | 3.2 | 3.2 | 0.00 | 0.00 | 0.00 | 49 | 1011.8 |
| 20260906185658 | 36 | 263 | 3.2 | 3.2 | 0.00 | 0.00 | 0.00 | 49 | 1011.6 |
| 20260906185157 | 36 | 268 | 0.0 | 0.0 | 0.00 | 0.00 | 0.00 | 49 | 1011.8 |
| 20260906184651 | 35 | 294 | 1.6 | 3.2 | 0.00 | 0.00 | 0.00 | 51 | 1011.8 |
| 20260906184147 | 35 | 124 | 1.6 | 1.6 | 0.00 | 0.00 | 0.00 | 50 | 1011.8 |
| 20260906183642 | 35 | 357 | 1.6 | 4.8 | 0.00 | 0.00 | 0.00 | 51 | 1011.9 |
| 20260906183139 | 35 | 102 | 3.2 | 8.0 | 0.00 | 0.00 | 0.00 | 51 | 1011.9 |
| 20260906182633 | 35 | 115 | 3.2 | 4.8 | 0.00 | 0.00 | 0.00 | 53 | 1012.0 |
| 20260906182129 | 35 | 168 | 1.6 | 1.6 | 0.00 | 0.00 | 0.00 | 52 | 1012.2 |
| 20260906181630 | 35 | 156 | 1.6 | 1.6 | 0.00 | 0.00 | 0.00 | 52 | 1012.0 |
| 20260906181126 | 35 | 193 | 0.0 | 0.0 | 0.00 | 0.00 | 0.00 | 52 | 1012.3 |
| 20260906180621 | 35 | 37 | 1.6 | 3.2 | 0.00 | 0.00 | 0.00 | 51 | 1012.2 |
| 20260906180115 | 35 | 133 | 1.6 | 1.6 | 0.00 | 0.00 | 0.00 | 51 | 1012.4 |
| 20260906175613 | 35 | 37 | 3.2 | 3.2 | 0.00 | 0.00 | 0.00 | 53 | 1012.5 |
| 20260906175109 | 35 | 175 | 4.8 | 8.0 | 0.00 | 0.00 | 0.00 | 51 | 1012.5 |
| 20260906174607 | 35 | 89 | 6.4 | 11.3 | 0.00 | 0.00 | 0.00 | 51 | 1012.7 |
| 20260906174101 | 35 | 146 | 4.8 | 8.0 | 0.00 | 0.00 | 0.00 | 52 | 1012.6 |
| 20260906173556 | 35 | 95 | 4.8 | 8.0 | 0.00 | 0.00 | 0.00 | 53 | 1012.8 |
| 20260906173053 | 35 | 295 | 0.0 | 1.6 | 0.00 | 0.00 | 0.00 | 52 | 1012.8 |
| 20260906172552 | 35 | 188 | 1.6 | 1.6 | 0.00 | 0.00 | 0.00 | 53 | 1012.9 |
| 20260906172048 | 34 | 294 | 1.6 | 1.6 | 0.00 | 0.00 | 0.00 | 54 | 1012.9 |
| 20260906171547 | 35 | 152 | 1.6 | 3.2 | 0.00 | 0.00 | 0.00 | 53 | 1013.1 |
| 20260906171043 | 34 | 7 | 0.0 | 0.0 | 0.00 | 0.00 | 0.00 | 56 | 1013.1 |
| 20260906170539 | 34 | 165 | 3.2 | 4.8 | 0.00 | 0.00 | 0.00 | 55 | 1013.1 |
| 20260906170038 | 34 | 280 | 0.0 | 0.0 | 0.00 | 0.00 | 0.00 | 56 | 1013.2 |
| 20260906165535 | 33 | 127 | 1.6 | 3.2 | 0.00 | 0.00 | 0.00 | 57 | 1013.0 |
| 20260906165029 | 33 | 269 | 1.6 | 1.6 | 0.00 | 0.00 | 0.00 | 56 | 1013.0 |
| 20260906164529 | 33 | 210 | 0.0 | 0.0 | 0.00 | 0.00 | 0.00 | 57 | 1013.2 |
| 20260906164025 | 34 | 95 | 4.8 | 4.8 | 0.00 | 0.00 | 0.00 | 54 | 1013.3 |
| 20260906163520 | 33 | 269 | 0.0 | 1.6 | 0.00 | 0.00 | 0.00 | 57 | 1013.1 |
| 20260906163015 | 33 | 205 | 0.0 | 0.0 | 0.00 | 0.00 | 0.00 | 59 | 1013.0 |
| 20260906162512 | 33 | 71 | 3.2 | 3.2 | 0.00 | 0.00 | 0.00 | 58 | 1013.5 |
| 20260906162007 | 33 | 124 | 3.2 | 3.2 | 0.00 | 0.00 | 0.00 | 58 | 1013.5 |
| 20260906161502 | 33 | 52 | 4.8 | 8.0 | 0.00 | 0.00 | 0.00 | 58 | 1013.3 |
| 20260906161001 | 33 | 37 | 6.4 | 8.0 | 0.00 | 0.00 | 0.00 | 59 | 1013.1 |
| 20260906160454 | 33 | 96 | 3.2 | 3.2 | 0.00 | 0.00 | 0.00 | 60 | 1013.1 |
| 20260906155952 | 33 | 236 | 0.0 | 0.0 | 0.00 | 0.00 | 0.00 | 59 | 1013.2 |
| 20260906155451 | 33 | 10 | 0.0 | 1.6 | 0.00 | 0.00 | 0.00 | 60 | 1013.2 |
| 20260906154948 | 33 | 124 | 1.6 | 3.2 | 0.00 | 0.00 | 0.00 | 61 | 1013.1 |
| 20260906154443 | 33 | 55 | 0.0 | 1.6 | 0.00 | 0.00 | 0.00 | 61 | 1013.1 |
| 20260906153941 | 33 | 69 | 1.6 | 4.8 | 0.00 | 0.00 | 0.00 | 62 | 1013.3 |
| 20260906153440 | 32 | 7 | 3.2 | 3.2 | 0.00 | 0.00 | 0.00 | 65 | 1013.0 |
| 20260906152936 | 32 | 133 | 3.2 | 4.8 | 0.00 | 0.00 | 0.00 | 64 | 1013.2 |
| 20260906152435 | 32 | 114 | 0.0 | 1.6 | 0.00 | 0.00 | 0.00 | 65 | 1012.9 |
| 20260906151935 | 32 | 98 | 0.0 | 1.6 | 0.00 | 0.00 | 0.00 | 67 | 1012.8 |
| 20260906151430 | 32 | 85 | 0.0 | 0.0 | 0.00 | 0.00 | 0.00 | 67 | 1012.7 |
| 20260906150926 | 32 | 350 | 0.0 | 0.0 | 0.00 | 0.00 | 0.00 | 69 | 1012.8 |
| 20260906150421 | 32 | 120 | 3.2 | 3.2 | 0.00 | 0.00 | 0.00 | 68 | 1012.8 |
| 20260906145921 | 32 | 85 | 1.6 | 3.2 | 0.00 | 0.00 | 0.00 | 69 | 1012.8 |
| 20260906145420 | 32 | 14 | 3.2 | 3.2 | 0.00 | 0.00 | 0.00 | 69 | 1012.9 |
| 20260906144914 | 31 | 346 | 0.0 | 0.0 | 0.00 | 0.00 | 0.00 | 71 | 1012.6 |
| 20260906144409 | 31 | 318 | 1.6 | 1.6 | 0.00 | 0.00 | 0.00 | 70 | 1012.7 |
| 20260906143905 | 31 | 354 | 0.0 | 0.0 | 0.00 | 0.00 | 0.00 | 71 | 1012.6 |
| 20260906143400 | 31 | 126 | 1.6 | 3.2 | 0.00 | 0.00 | 0.00 | 71 | 1012.9 |
| 20260906142856 | 31 | 135 | 0.0 | 1.6 | 0.00 | 0.00 | 0.00 | 72 | 1013.0 |
| 20260906142355 | 30 | 115 | 0.0 | 0.0 | 0.00 | 0.00 | 0.00 | 74 | 1013.0 |
| 20260906141850 | 30 | 36 | 0.0 | 0.0 | 0.00 | 0.00 | 0.00 | 74 | 1012.7 |
| 20260906141344 | 30 | 331 | 0.0 | 0.0 | 0.00 | 0.00 | 0.00 | 75 | 1012.9 |
| 20260906140844 | 30 | 338 | 0.0 | 0.0 | 0.00 | 0.00 | 0.00 | 75 | 1012.9 |
| 20260906140339 | 30 | 341 | 0.0 | 0.0 | 0.00 | 0.00 | 0.00 | 76 | 1013.0 |
| 20260906135836 | 30 | 338 | 0.0 | 0.0 | 0.00 | 0.00 | 0.00 | 78 | 1012.9 |
| 20260906135331 | 29 | 91 | 0.0 | 0.0 | 0.00 | 0.00 | 0.00 | 79 | 1012.8 |
| 20260906134827 | 29 | 69 | 1.6 | 1.6 | 0.00 | 0.00 | 0.00 | 79 | 1012.8 |
| 20260906134322 | 28 | 335 | 0.0 | 0.0 | 0.00 | 0.00 | 0.00 | 83 | 1012.8 |
| 20260906133817 | 27 | 58 | 0.0 | 0.0 | 0.00 | 0.00 | 0.00 | 86 | 1012.8 |
| 20260906133313 | 27 | 86 | 0.0 | 0.0 | 0.00 | 0.00 | 0.00 | 87 | 1012.9 |
| 20260906132808 | 26 | 98 | 0.0 | 0.0 | 0.00 | 0.00 | 0.00 | 88 | 1012.8 |
| 20260906132306 | 26 | 338 | 0.0 | 0.0 | 0.00 | 0.00 | 0.00 | 89 | 1012.9 |
| 20260906131758 | 26 | 18 | 0.0 | 0.0 | 0.00 | 0.00 | 0.00 | 89 | 1012.7 |
| 20260906131254 | 26 | 98 | 0.0 | 0.0 | 0.00 | 0.00 | 0.00 | 90 | 1012.9 |
| 20260906130749 | 26 | 76 | 0.0 | 0.0 | 0.00 | 0.00 | 0.00 | 90 | 1012.5 |
| 20260906130244 | 25 | 105 | 0.0 | 0.0 | 0.00 | 0.00 | 0.00 | 91 | 1012.7 |
| 20260906125742 | 25 | 105 | 1.6 | 1.6 | 0.00 | 0.00 | 0.00 | 91 | 1012.6 |
| 20260906125241 | 25 | 266 | 0.0 | 0.0 | 0.00 | 0.00 | 0.00 | 91 | 1012.5 |
| 20260906124735 | 25 | 322 | 0.0 | 0.0 | 0.00 | 0.00 | 0.00 | 92 | 1012.6 |
| 20260906124232 | 25 | 329 | 0.0 | 0.0 | 0.00 | 0.00 | 0.00 | 92 | 1012.9 |
| 20260906123730 | 25 | 325 | 0.0 | 0.0 | 0.00 | 0.00 | 0.00 | 92 | 1012.5 |
| 20260906123225 | 25 | 317 | 0.0 | 0.0 | 0.00 | 0.00 | 0.00 | 92 | 1012.6 |
| 20260906122725 | 25 | 312 | 0.0 | 0.0 | 0.00 | 0.00 | 0.00 | 92 | 1012.4 |
| 20260906122220 | 25 | 321 | 0.0 | 0.0 | 0.00 | 0.00 | 0.00 | 92 | 1012.3 |
| 20260906121717 | 25 | 313 | 0.0 | 0.0 | 0.00 | 0.00 | 0.00 | 92 | 1012.3 |
| 20260906121213 | 25 | 320 | 0.0 | 0.0 | 0.00 | 0.00 | 0.00 | 91 | 1012.3 |
| 20260906120708 | 25 | 316 | 0.0 | 0.0 | 0.00 | 0.00 | 0.00 | 91 | 1012.1 |
| 20260906120205 | 25 | 301 | 0.0 | 0.0 | 0.00 | 0.00 | 0.00 | 91 | 1012.3 |
| 20260906115700 | 25 | 300 | 0.0 | 0.0 | 0.00 | 0.00 | 0.00 | 91 | 1012.0 |
| 20260906115155 | 25 | 324 | 0.0 | 0.0 | 0.00 | 0.00 | 0.00 | 91 | 1012.1 |
| 20260906114654 | 25 | 320 | 0.0 | 0.0 | 0.00 | 0.00 | 0.00 | 91 | 1012.0 |
| 20260906114150 | 25 | 320 | 0.0 | 0.0 | 0.00 | 0.00 | 0.00 | 90 | 1012.1 |
| 20260906113650 | 25 | 302 | 0.0 | 0.0 | 0.00 | 0.00 | 0.00 | 90 | 1011.9 |
| 20260906113150 | 25 | 296 | 0.0 | 0.0 | 0.00 | 0.00 | 0.00 | 90 | 1011.8 |
| 20260906112649 | 25 | 311 | 0.0 | 0.0 | 0.00 | 0.00 | 0.00 | 90 | 1012.0 |
| 20260906112147 | 25 | 315 | 0.0 | 0.0 | 0.00 | 0.00 | 0.00 | 89 | 1012.1 |
| 20260906111645 | 25 | 357 | 0.0 | 0.0 | 0.00 | 0.00 | 0.00 | 89 | 1012.0 |
| 20260906111140 | 25 | 295 | 0.0 | 0.0 | 0.00 | 0.00 | 0.00 | 89 | 1011.9 |
| 20260906110635 | 25 | 299 | 0.0 | 0.0 | 0.00 | 0.00 | 0.00 | 89 | 1011.8 |
| 20260906110130 | 25 | 276 | 0.0 | 0.0 | 0.00 | 0.00 | 0.00 | 89 | 1011.9 |
| 20260906105624 | 25 | 300 | 0.0 | 0.0 | 0.00 | 0.00 | 0.00 | 89 | 1011.6 |
| 20260906105120 | 25 | 300 | 0.0 | 0.0 | 0.00 | 0.00 | 0.00 | 89 | 1011.6 |
| 20260906104620 | 25 | 300 | 0.0 | 0.0 | 0.00 | 0.00 | 0.00 | 88 | 1011.6 |
| 20260906104114 | 26 | 300 | 0.0 | 0.0 | 0.00 | 0.00 | 0.00 | 88 | 1011.5 |
| 20260906103612 | 26 | 301 | 0.0 | 0.0 | 0.00 | 0.00 | 0.00 | 88 | 1011.5 |
| 20260906103108 | 26 | 284 | 0.0 | 0.0 | 0.00 | 0.00 | 0.00 | 88 | 1011.8 |
| 20260906102608 | 26 | 290 | 0.0 | 0.0 | 0.00 | 0.00 | 0.00 | 88 | 1011.5 |
| 20260906102102 | 26 | 299 | 0.0 | 0.0 | 0.00 | 0.00 | 0.00 | 88 | 1011.3 |
| 20260906101557 | 26 | 299 | 0.0 | 0.0 | 0.00 | 0.00 | 0.00 | 88 | 1011.5 |
| 20260906101051 | 26 | 297 | 0.0 | 0.0 | 0.00 | 0.00 | 0.00 | 88 | 1011.3 |
| 20260906100547 | 26 | 297 | 0.0 | 0.0 | 0.00 | 0.00 | 0.00 | 87 | 1011.4 |
| 20260906100048 | 26 | 294 | 0.0 | 0.0 | 0.00 | 0.00 | 0.00 | 88 | 1011.5 |
| 20260906095547 | 26 | 300 | 0.0 | 0.0 | 0.00 | 0.00 | 0.00 | 88 | 1011.4 |
| 20260906095043 | 26 | 293 | 0.0 | 0.0 | 0.00 | 0.00 | 0.00 | 88 | 1011.3 |
| 20260906094541 | 26 | 303 | 0.0 | 0.0 | 0.00 | 0.00 | 0.00 | 87 | 1011.2 |
| 20260906094038 | 26 | 303 | 0.0 | 0.0 | 0.00 | 0.00 | 0.00 | 87 | 1011.3 |
| 20260906093533 | 26 | 303 | 0.0 | 0.0 | 0.00 | 0.00 | 0.00 | 86 | 1011.2 |
| 20260906093028 | 26 | 303 | 0.0 | 0.0 | 0.00 | 0.00 | 0.00 | 86 | 1011.2 |
| 20260906092523 | 26 | 297 | 0.0 | 0.0 | 0.00 | 0.00 | 0.00 | 86 | 1011.2 |
| 20260906092018 | 26 | 303 | 0.0 | 0.0 | 0.00 | 0.00 | 0.00 | 85 | 1011.0 |
| 20260906091514 | 26 | 288 | 0.0 | 0.0 | 0.00 | 0.00 | 0.00 | 85 | 1010.9 |
| 20260906091010 | 26 | 296 | 0.0 | 0.0 | 0.00 | 0.00 | 0.00 | 85 | 1010.8 |
| 20260906090510 | 26 | 295 | 0.0 | 0.0 | 0.00 | 0.00 | 0.00 | 85 | 1010.8 |
| 20260906090005 | 26 | 291 | 0.0 | 0.0 | 0.00 | 0.00 | 0.00 | 84 | 1010.6 |
| 20260906085504 | 26 | 300 | 0.0 | 0.0 | 0.00 | 0.00 | 0.00 | 84 | 1010.8 |
| 20260906085003 | 26 | 289 | 0.0 | 0.0 | 0.00 | 0.00 | 0.00 | 84 | 1010.9 |
| 20260906084458 | 27 | 293 | 0.0 | 0.0 | 0.00 | 0.00 | 0.00 | 84 | 1011.0 |
| 20260906083957 | 27 | 296 | 0.0 | 0.0 | 0.00 | 0.00 | 0.00 | 83 | 1011.0 |
| 20260906083453 | 27 | 282 | 0.0 | 0.0 | 0.00 | 0.00 | 0.00 | 83 | 1010.8 |
| 20260906082952 | 27 | 281 | 0.0 | 0.0 | 0.00 | 0.00 | 0.00 | 83 | 1010.8 |
| 20260906082448 | 27 | 285 | 0.0 | 0.0 | 0.00 | 0.00 | 0.00 | 82 | 1010.7 |
| 20260906081943 | 27 | 293 | 0.0 | 0.0 | 0.00 | 0.00 | 0.00 | 82 | 1010.8 |
| 20260906081444 | 27 | 279 | 0.0 | 0.0 | 0.00 | 0.00 | 0.00 | 82 | 1010.7 |
| 20260906080940 | 27 | 294 | 0.0 | 0.0 | 0.00 | 0.00 | 0.00 | 81 | 1010.8 |
| 20260906080437 | 27 | 288 | 0.0 | 0.0 | 0.00 | 0.00 | 0.00 | 81 | 1010.9 |
| 20260906075936 | 27 | 283 | 0.0 | 0.0 | 0.00 | 0.00 | 0.00 | 81 | 1010.9 |
| 20260906075426 | 27 | 296 | 0.0 | 0.0 | 0.00 | 0.00 | 0.00 | 81 | 1011.1 |
| 20260906074921 | 27 | 273 | 0.0 | 0.0 | 0.00 | 0.00 | 0.00 | 81 | 1011.3 |
| 20260906074421 | 27 | 287 | 0.0 | 0.0 | 0.00 | 0.00 | 0.00 | 80 | 1011.0 |
| 20260906073920 | 27 | 283 | 0.0 | 0.0 | 0.00 | 0.00 | 0.00 | 80 | 1010.7 |
| 20260906073414 | 27 | 272 | 0.0 | 0.0 | 0.00 | 0.00 | 0.00 | 80 | 1010.9 |
| 20260906072911 | 27 | 270 | 0.0 | 0.0 | 0.00 | 0.00 | 0.00 | 80 | 1010.9 |
| 20260906072406 | 27 | 289 | 0.0 | 0.0 | 0.00 | 0.00 | 0.00 | 79 | 1010.9 |
| 20260906071902 | 27 | 296 | 0.0 | 0.0 | 0.00 | 0.00 | 0.00 | 79 | 1011.0 |
| 20260906071357 | 27 | 297 | 0.0 | 0.0 | 0.00 | 0.00 | 0.00 | 78 | 1011.0 |
| 20260906070853 | 27 | 291 | 0.0 | 0.0 | 0.00 | 0.00 | 0.00 | 78 | 1011.2 |
| 20260906070349 | 28 | 255 | 0.0 | 0.0 | 0.00 | 0.00 | 0.00 | 77 | 1011.5 |
| 20260906065844 | 28 | 292 | 0.0 | 0.0 | 0.00 | 0.00 | 0.00 | 77 | 1011.4 |
| 20260906065338 | 28 | 286 | 0.0 | 0.0 | 0.00 | 0.00 | 0.00 | 76 | 1011.1 |
| 20260906064834 | 28 | 265 | 0.0 | 0.0 | 0.00 | 0.00 | 0.00 | 76 | 1011.3 |
| 20260906064331 | 28 | 311 | 0.0 | 0.0 | 0.00 | 0.00 | 0.00 | 76 | 1011.3 |
| 20260906063831 | 28 | 288 | 0.0 | 0.0 | 0.00 | 0.00 | 0.00 | 75 | 1011.3 |
| 20260906063326 | 28 | 275 | 0.0 | 0.0 | 0.00 | 0.00 | 0.00 | 75 | 1011.2 |
| 20260906062821 | 28 | 278 | 0.0 | 0.0 | 0.00 | 0.00 | 0.00 | 74 | 1011.3 |
| 20260906062320 | 28 | 281 | 0.0 | 0.0 | 0.00 | 0.00 | 0.00 | 74 | 1011.2 |
| 20260906061816 | 28 | 279 | 0.0 | 0.0 | 0.00 | 0.00 | 0.00 | 74 | 1011.1 |
| 20260906061312 | 28 | 260 | 0.0 | 0.0 | 0.00 | 0.00 | 0.00 | 73 | 1011.0 |
| 20260906060807 | 28 | 279 | 0.0 | 0.0 | 0.00 | 0.00 | 0.00 | 73 | 1011.3 |
| 20260906060305 | 28 | 281 | 0.0 | 0.0 | 0.00 | 0.00 | 0.00 | 73 | 1011.2 |
| 20260906055800 | 28 | 281 | 0.0 | 0.0 | 0.00 | 0.00 | 0.00 | 72 | 1011.2 |
| 20260906055255 | 28 | 281 | 0.0 | 0.0 | 0.00 | 0.00 | 0.00 | 72 | 1011.3 |
| 20260906054750 | 28 | 255 | 0.0 | 0.0 | 0.00 | 0.00 | 0.00 | 71 | 1011.2 |
| 20260906054246 | 28 | 254 | 0.0 | 0.0 | 0.00 | 0.00 | 0.00 | 71 | 1011.4 |
| 20260906053742 | 28 | 276 | 0.0 | 0.0 | 0.00 | 0.00 | 0.00 | 72 | 1011.2 |
| 20260906053238 | 28 | 268 | 0.0 | 0.0 | 0.00 | 0.00 | 0.00 | 71 | 1011.2 |
| 20260906052733 | 28 | 271 | 0.0 | 0.0 | 0.00 | 0.00 | 0.00 | 71 | 1011.3 |
| 20260906052229 | 28 | 287 | 0.0 | 0.0 | 0.00 | 0.00 | 0.00 | 71 | 1011.2 |
| 20260906051726 | 29 | 287 | 0.0 | 0.0 | 0.00 | 0.00 | 0.00 | 71 | 1010.9 |
| 20260906051225 | 29 | 290 | 0.0 | 0.0 | 0.00 | 0.00 | 0.00 | 71 | 1011.0 |
| 20260906050720 | 29 | 290 | 0.0 | 0.0 | 0.00 | 0.00 | 0.00 | 70 | 1011.2 |
| 20260906050215 | 29 | 291 | 0.0 | 0.0 | 0.00 | 0.00 | 0.00 | 70 | 1011.1 |
| 20260906045714 | 29 | 271 | 0.0 | 0.0 | 0.00 | 0.00 | 0.00 | 70 | 1011.1 |
| 20260906045209 | 29 | 279 | 0.0 | 0.0 | 0.00 | 0.00 | 0.00 | 70 | 1011.0 |
| 20260906044705 | 29 | 185 | 0.0 | 0.0 | 0.00 | 0.00 | 0.00 | 70 | 1011.1 |
| 20260906044200 | 29 | 258 | 0.0 | 0.0 | 0.00 | 0.00 | 0.00 | 70 | 1011.5 |
| 20260906043656 | 30 | 271 | 0.0 | 0.0 | 0.00 | 0.00 | 0.00 | 70 | 1011.4 |
| 20260906043152 | 30 | 274 | 0.0 | 0.0 | 0.00 | 0.00 | 0.00 | 69 | 1011.2 |
| 20260906042651 | 30 | 291 | 0.0 | 0.0 | 0.00 | 0.00 | 0.00 | 69 | 1011.3 |
| 20260906042145 | 30 | 277 | 0.0 | 0.0 | 0.00 | 0.00 | 0.00 | 69 | 1011.1 |
| 20260906041641 | 30 | 249 | 0.0 | 0.0 | 0.00 | 0.00 | 0.00 | 69 | 1011.1 |
| 20260906041136 | 30 | 278 | 0.0 | 0.0 | 0.00 | 0.00 | 0.00 | 69 | 1011.3 |
| 20260906040632 | 30 | 273 | 0.0 | 0.0 | 0.00 | 0.00 | 0.00 | 69 | 1011.3 |
| 20260906040127 | 30 | 276 | 0.0 | 0.0 | 0.00 | 0.00 | 0.00 | 69 | 1011.3 |
| 20260906035622 | 30 | 283 | 0.0 | 0.0 | 0.00 | 0.00 | 0.00 | 69 | 1011.1 |
| 20260906035118 | 30 | 280 | 0.0 | 0.0 | 0.00 | 0.00 | 0.00 | 69 | 1011.3 |
| 20260906034618 | 30 | 290 | 0.0 | 0.0 | 0.00 | 0.00 | 0.00 | 69 | 1011.3 |
| 20260906034112 | 30 | 291 | 0.0 | 0.0 | 0.00 | 0.00 | 0.00 | 68 | 1011.0 |
| 20260906033608 | 30 | 271 | 0.0 | 0.0 | 0.00 | 0.00 | 0.00 | 68 | 1011.1 |
| 20260906033103 | 30 | 280 | 0.0 | 0.0 | 0.00 | 0.00 | 0.00 | 68 | 1011.1 |
| 20260906032600 | 30 | 265 | 0.0 | 0.0 | 0.00 | 0.00 | 0.00 | 68 | 1011.1 |
| 20260906032059 | 30 | 294 | 0.0 | 0.0 | 0.00 | 0.00 | 0.00 | 67 | 1011.1 |
| 20260906031555 | 30 | 265 | 0.0 | 0.0 | 0.00 | 0.00 | 0.00 | 67 | 1011.2 |
| 20260906031050 | 30 | 214 | 0.0 | 0.0 | 0.00 | 0.00 | 0.00 | 67 | 1011.0 |
| 20260906030549 | 30 | 278 | 0.0 | 0.0 | 0.00 | 0.00 | 0.00 | 66 | 1011.2 |
| 20260906030044 | 30 | 280 | 0.0 | 0.0 | 0.00 | 0.00 | 0.00 | 66 | 1011.2 |
| 20260906025544 | 30 | 181 | 1.6 | 1.6 | 0.00 | 0.00 | 0.00 | 65 | 1011.4 |
| 20260906025042 | 30 | 207 | 0.0 | 0.0 | 0.00 | 0.00 | 0.00 | 65 | 1011.2 |
| 20260906024538 | 30 | 265 | 0.0 | 0.0 | 0.00 | 0.00 | 0.00 | 65 | 1011.1 |
| 20260906024037 | 30 | 216 | 3.2 | 3.2 | 0.00 | 0.00 | 0.00 | 64 | 1011.0 |
| 20260906023534 | 30 | 196 | 0.0 | 0.0 | 0.00 | 0.00 | 0.00 | 64 | 1011.0 |
| 20260906023028 | 30 | 210 | 0.0 | 0.0 | 0.00 | 0.00 | 0.00 | 65 | 1010.5 |
| 20260906022524 | 30 | 253 | 0.0 | 0.0 | 0.00 | 0.00 | 0.00 | 65 | 1010.8 |
| 20260906022019 | 31 | 268 | 0.0 | 0.0 | 0.00 | 0.00 | 0.00 | 64 | 1010.7 |
| 20260906021514 | 31 | 230 | 0.0 | 0.0 | 0.00 | 0.00 | 0.00 | 64 | 1010.7 |
| 20260906021008 | 31 | 217 | 0.0 | 0.0 | 0.00 | 0.00 | 0.00 | 64 | 1010.8 |
| 20260906020507 | 31 | 250 | 0.0 | 0.0 | 0.00 | 0.00 | 0.00 | 64 | 1010.8 |
| 20260906020007 | 31 | 203 | 0.0 | 1.6 | 0.00 | 0.00 | 0.00 | 63 | 1010.3 |
| 20260906015501 | 31 | 93 | 1.6 | 1.6 | 0.00 | 0.00 | 0.00 | 63 | 1010.5 |
| 20260906015000 | 31 | 208 | 0.0 | 0.0 | 0.00 | 0.00 | 0.00 | 63 | 1010.3 |
| 20260906014455 | 31 | 179 | 0.0 | 1.6 | 0.00 | 0.00 | 0.00 | 62 | 1010.6 |
| 20260906013951 | 31 | 161 | 0.0 | 0.0 | 0.00 | 0.00 | 0.00 | 62 | 1010.4 |
| 20260906013447 | 31 | 154 | 0.0 | 0.0 | 0.00 | 0.00 | 0.00 | 61 | 1010.2 |
| 20260906012942 | 32 | 191 | 1.6 | 1.6 | 0.00 | 0.00 | 0.00 | 60 | 1010.1 |
| 20260906012437 | 32 | 168 | 1.6 | 1.6 | 0.00 | 0.00 | 0.00 | 59 | 1010.1 |
| 20260906011936 | 32 | 211 | 1.6 | 3.2 | 0.00 | 0.00 | 0.00 | 57 | 1009.8 |
| 20260906011432 | 33 | 172 | 1.6 | 1.6 | 0.00 | 0.00 | 0.00 | 57 | 1009.7 |
| 20260906010927 | 33 | 106 | 0.0 | 0.0 | 0.00 | 0.00 | 0.00 | 56 | 1009.8 |
| 20260906010422 | 33 | 203 | 1.6 | 1.6 | 0.00 | 0.00 | 0.00 | 55 | 1009.6 |
| 20260906005918 | 33 | 227 | 1.6 | 1.6 | 0.00 | 0.00 | 0.00 | 54 | 1009.7 |
| 20260906005418 | 34 | 44 | 1.6 | 1.6 | 0.00 | 0.00 | 0.00 | 53 | 1009.4 |
| 20260906004916 | 35 | 85 | 1.6 | 1.6 | 0.00 | 0.00 | 0.00 | 52 | 1009.5 |
| 20260906004411 | 35 | 271 | 0.0 | 0.0 | 0.00 | 0.00 | 0.00 | 49 | 1009.4 |
| 20260906003906 | 35 | 276 | 0.0 | 0.0 | 0.00 | 0.00 | 0.00 | 48 | 1009.3 |
| 20260906003402 | 35 | 144 | 0.0 | 0.0 | 0.00 | 0.00 | 0.00 | 47 | 1009.5 |
| 20260906002857 | 35 | 230 | 0.0 | 0.0 | 0.00 | 0.00 | 0.00 | 47 | 1009.4 |
| 20260906002356 | 35 | 21 | 0.0 | 0.0 | 0.00 | 0.00 | 0.00 | 46 | 1009.5 |
| 20260906001852 | 36 | 126 | 1.6 | 3.2 | 0.00 | 0.00 | 0.00 | 46 | 1009.5 |
| 20260906001348 | 36 | 240 | 0.0 | 0.0 | 0.00 | 0.00 | 0.00 | 45 | 1009.3 |
| 20260906000842 | 36 | 251 | 0.0 | 0.0 | 0.00 | 0.00 | 0.00 | 45 | 1009.3 |
| 20260906000343 | 36 | 247 | 0.0 | 0.0 | 0.00 | 0.00 | 0.00 | 44 | 1009.4 |
| 20260905235843 | 36 | 138 | 0.0 | 0.0 | 0.00 | 0.00 | 0.00 | 44 | 1009.5 |
| 20260905235337 | 37 | 201 | 1.6 | 3.2 | 0.00 | 0.00 | 0.00 | 44 | 1009.2 |
| 20260905234833 | 37 | 202 | 1.6 | 1.6 | 0.00 | 0.00 | 0.00 | 43 | 1009.0 |
| 20260905234328 | 37 | 110 | 0.0 | 0.0 | 0.00 | 0.00 | 0.00 | 43 | 1009.0 |
| 20260905233823 | 37 | 170 | 0.0 | 0.0 | 0.00 | 0.00 | 0.00 | 43 | 1009.1 |
| 20260905233318 | 37 | 290 | 0.0 | 0.0 | 0.00 | 0.00 | 0.00 | 43 | 1009.2 |
| 20260905232817 | 37 | 337 | 0.0 | 0.0 | 0.00 | 0.00 | 0.00 | 43 | 1009.1 |
| 20260905232313 | 37 | 234 | 0.0 | 1.6 | 0.00 | 0.00 | 0.00 | 42 | 1009.2 |
| 20260905231809 | 37 | 254 | 0.0 | 0.0 | 0.00 | 0.00 | 0.00 | 42 | 1009.1 |
| 20260905231303 | 37 | 242 | 0.0 | 1.6 | 0.00 | 0.00 | 0.00 | 42 | 1009.1 |